Time,TemperatureF,DewpointF,PressureIn,WindDirection,WindDirectionDegrees,WindSpeedMPH,WindSpeedGustMPH,Humidity,HourlyPrecipIn,Conditions,Clouds,dailyrainin,SoftwareType,DateUTC
2013-07-09 00:00:00,71.6,70.7,30.07,South,186,0.0,0.0,97,0.00,,,0.54,LWC V2.00 B2112,2013-07-09 04:00:00,
2013-07-09 00:05:00,71.6,70.7,30.07,South,185,0.0,0.0,97,0.00,,,0.54,LWC V2.00 B2112,2013-07-09 04:05:00,
2013-07-09 00:10:00,71.6,70.7,30.07,South,185,0.0,0.0,97,0.00,,,0.54,LWC V2.00 B2112,2013-07-09 04:10:00,
2013-07-09 00:15:00,71.6,70.7,30.07,South,185,0.0,0.0,97,0.00,,,0.54,LWC V2.00 B2112,2013-07-09 04:15:00,
2013-07-09 00:20:00,71.5,70.6,30.07,South,185,0.0,0.0,97,0.00,,,0.54,LWC V2.00 B2112,2013-07-09 04:20:00,
2013-07-09 00:25:00,71.5,70.6,30.07,South,185,0.0,0.0,97,0.00,,,0.54,LWC V2.00 B2112,2013-07-09 04:25:00,
2013-07-09 00:30:00,71.3,70.4,30.07,South,185,0.0,0.0,97,0.00,,,0.54,LWC V2.00 B2112,2013-07-09 04:30:00,
2013-07-09 00:35:00,71.3,70.4,30.07,South,185,0.0,0.0,97,0.00,,,0.54,LWC V2.00 B2112,2013-07-09 04:35:00,
2013-07-09 00:40:00,71.3,70.4,30.07,South,185,0.0,0.0,97,0.00,,,0.54,LWC V2.00 B2112,2013-07-09 04:40:00,
2013-07-09 00:45:00,71.3,70.4,30.07,South,185,0.0,0.0,97,0.00,,,0.00,LWC V2.00 B2112,2013-07-09 04:45:00,
2013-07-09 00:50:00,71.1,70.2,30.07,South,185,0.0,0.0,97,0.00,,,0.00,LWC V2.00 B2112,2013-07-09 04:50:00,
2013-07-09 00:55:00,71.1,70.2,30.07,South,185,0.0,0.0,97,0.00,,,0.00,LWC V2.00 B2112,2013-07-09 04:55:00,
2013-07-09 01:00:00,71.1,70.2,30.07,South,185,0.0,0.0,97,0.00,,,0.00,LWC V2.00 B2112,2013-07-09 05:00:00,
2013-07-09 01:05:00,71.1,70.2,30.07,South,185,0.0,0.0,97,0.00,,,0.00,LWC V2.00 B2112,2013-07-09 05:05:00,
2013-07-09 01:10:00,71.1,70.2,30.07,South,185,0.0,0.0,97,0.00,,,0.00,LWC V2.00 B2112,2013-07-09 05:10:00,
2013-07-09 01:15:00,70.9,70.0,30.06,South,185,0.0,0.0,97,0.00,,,0.00,LWC V2.00 B2112,2013-07-09 05:15:00,
2013-07-09 01:20:00,71.1,70.2,30.06,South,185,0.0,0.0,97,0.00,,,0.00,LWC V2.00 B2112,2013-07-09 05:20:00,
2013-07-09 01:25:00,71.1,70.5,30.06,South,185,0.0,0.0,98,0.00,,,0.00,LWC V2.00 B2112,2013-07-09 05:25:00,
2013-07-09 01:30:00,71.1,70.5,30.06,South,185,0.0,0.0,98,0.00,,,0.00,LWC V2.00 B2112,2013-07-09 05:30:00,
2013-07-09 01:35:00,71.3,70.7,30.06,South,189,0.0,0.0,98,0.00,,,0.00,LWC V2.00 B2112,2013-07-09 05:35:00,
2013-07-09 01:40:00,71.5,70.9,30.06,SSW,207,0.0,0.0,98,0.00,,,0.00,LWC V2.00 B2112,2013-07-09 05:40:00,
2013-07-09 01:45:00,71.5,70.9,30.06,SSW,205,0.0,0.0,98,0.00,,,0.00,LWC V2.00 B2112,2013-07-09 05:45:00,
2013-07-09 01:50:00,71.5,70.9,30.06,SSW,205,0.0,0.0,98,0.00,,,0.00,LWC V2.00 B2112,2013-07-09 05:50:00,
2013-07-09 01:55:00,71.6,71.0,30.06,South,182,0.0,0.0,98,0.00,,,0.00,LWC V2.00 B2112,2013-07-09 05:55:00,
2013-07-09 02:00:00,71.6,71.0,30.06,SSW,193,0.0,0.0,98,0.00,,,0.00,LWC V2.00 B2112,2013-07-09 06:00:00,
2013-07-09 02:05:00,71.8,71.2,30.06,SSW,197,0.0,0.0,98,0.00,,,0.00,LWC V2.00 B2112,2013-07-09 06:05:00,
2013-07-09 02:10:00,71.8,71.2,30.06,SSE,149,0.0,0.0,98,0.00,,,0.00,LWC V2.00 B2112,2013-07-09 06:10:00,
2013-07-09 02:15:00,71.8,71.2,30.06,SSE,156,0.0,0.0,98,0.00,,,0.00,LWC V2.00 B2112,2013-07-09 06:15:00,
2013-07-09 02:20:00,71.8,71.2,30.06,SSE,156,0.0,0.0,98,0.00,,,0.00,LWC V2.00 B2112,2013-07-09 06:20:00,
2013-07-09 02:25:00,72.0,71.4,30.06,SSE,156,0.0,0.0,98,0.00,,,0.00,LWC V2.00 B2112,2013-07-09 06:25:00,
2013-07-09 02:30:00,72.0,71.4,30.06,SSE,156,0.0,0.0,98,0.00,,,0.00,LWC V2.00 B2112,2013-07-09 06:30:00,
2013-07-09 02:35:00,72.0,71.4,30.06,SW,221,0.0,0.0,98,0.00,,,0.00,LWC V2.00 B2112,2013-07-09 06:35:00,
2013-07-09 02:40:00,72.0,71.4,30.06,SW,221,0.0,0.0,98,0.00,,,0.00,LWC V2.00 B2112,2013-07-09 06:40:00,
2013-07-09 02:45:00,72.1,71.5,30.06,SW,214,0.0,0.0,98,0.00,,,0.00,LWC V2.00 B2112,2013-07-09 06:45:00,
2013-07-09 02:50:00,72.1,71.5,30.06,SE,140,0.0,0.0,98,0.00,,,0.00,LWC V2.00 B2112,2013-07-09 06:50:00,
2013-07-09 02:55:00,72.1,71.5,30.06,SSW,205,0.0,0.0,98,0.00,,,0.00,LWC V2.00 B2112,2013-07-09 06:55:00,
2013-07-09 03:00:00,72.1,71.5,30.06,SSW,205,0.0,0.0,98,0.00,,,0.00,LWC V2.00 B2112,2013-07-09 07:00:00,
2013-07-09 03:05:00,72.0,71.4,30.06,SSW,205,0.0,0.0,98,0.00,,,0.00,LWC V2.00 B2112,2013-07-09 07:05:00,
2013-07-09 03:10:00,72.0,71.4,30.06,SSW,205,0.0,0.0,98,0.00,,,0.00,LWC V2.00 B2112,2013-07-09 07:10:00,
2013-07-09 03:15:00,72.0,71.4,30.05,SSW,205,0.0,0.0,98,0.00,,,0.00,LWC V2.00 B2112,2013-07-09 07:15:00,
2013-07-09 03:20:00,71.8,71.2,30.05,SSW,205,0.0,0.0,98,0.00,,,0.00,LWC V2.00 B2112,2013-07-09 07:20:00,
2013-07-09 03:25:00,71.8,71.2,30.05,SSW,205,0.0,0.0,98,0.00,,,0.00,LWC V2.00 B2112,2013-07-09 07:25:00,
2013-07-09 03:30:00,71.8,71.2,30.05,SSW,205,0.0,0.0,98,0.00,,,0.00,LWC V2.00 B2112,2013-07-09 07:30:00,
2013-07-09 03:35:00,71.8,71.2,30.05,SSW,205,0.0,0.0,98,0.00,,,0.00,LWC V2.00 B2112,2013-07-09 07:35:00,
2013-07-09 03:40:00,71.8,71.2,30.05,SSW,205,0.0,0.0,98,0.00,,,0.00,LWC V2.00 B2112,2013-07-09 07:40:00,
2013-07-09 03:45:00,71.6,71.0,30.05,SSW,205,0.0,0.0,98,0.00,,,0.00,LWC V2.00 B2112,2013-07-09 07:45:00,
2013-07-09 03:55:00,71.6,71.0,30.05,SSW,205,0.0,0.0,98,0.00,,,0.00,LWC V2.00 B2112,2013-07-09 07:55:00,
2013-07-09 04:00:00,71.6,71.0,30.04,SSW,205,0.0,0.0,98,0.00,,,0.00,LWC V2.00 B2112,2013-07-09 08:00:00,
2013-07-09 04:05:00,71.6,71.0,30.04,SSW,205,0.0,0.0,98,0.00,,,0.00,LWC V2.00 B2112,2013-07-09 08:05:00,
2013-07-09 04:10:00,71.6,71.0,30.04,SSW,205,0.0,0.0,98,0.00,,,0.00,LWC V2.00 B2112,2013-07-09 08:10:00,
2013-07-09 04:15:00,71.6,71.0,30.04,SSW,205,0.0,0.0,98,0.00,,,0.00,LWC V2.00 B2112,2013-07-09 08:15:00,
2013-07-09 04:20:00,71.6,71.0,30.04,SSW,205,0.0,0.0,98,0.00,,,0.00,LWC V2.00 B2112,2013-07-09 08:20:00,
2013-07-09 04:25:00,71.6,71.3,30.04,SSW,205,0.0,0.0,99,0.00,,,0.00,LWC V2.00 B2112,2013-07-09 08:25:00,
2013-07-09 04:30:00,71.6,71.3,30.04,SSW,205,0.0,0.0,99,0.00,,,0.00,LWC V2.00 B2112,2013-07-09 08:30:00,
2013-07-09 04:35:00,71.6,71.3,30.04,SSW,205,0.0,0.0,99,0.00,,,0.00,LWC V2.00 B2112,2013-07-09 08:35:00,
2013-07-09 04:40:00,71.6,71.3,30.04,SSW,205,0.0,0.0,99,0.00,,,0.00,LWC V2.00 B2112,2013-07-09 08:40:00,
2013-07-09 04:45:00,71.6,71.3,30.05,SSW,205,0.0,0.0,99,0.00,,,0.00,LWC V2.00 B2112,2013-07-09 08:45:00,
2013-07-09 04:50:00,71.6,71.3,30.05,SSW,205,0.0,0.0,99,0.00,,,0.00,LWC V2.00 B2112,2013-07-09 08:50:00,
2013-07-09 04:55:00,71.6,71.3,30.05,SSW,205,0.0,0.0,99,0.00,,,0.00,LWC V2.00 B2112,2013-07-09 08:55:00,
2013-07-09 05:00:00,71.6,71.3,30.05,SSW,205,0.0,0.0,99,0.00,,,0.00,LWC V2.00 B2112,2013-07-09 09:00:00,
2013-07-09 05:05:00,71.6,71.3,30.05,SSW,205,0.0,0.0,99,0.00,,,0.00,LWC V2.00 B2112,2013-07-09 09:05:00,
2013-07-09 05:10:00,71.5,71.2,30.05,SSW,205,0.0,0.0,99,0.00,,,0.00,LWC V2.00 B2112,2013-07-09 09:10:00,
2013-07-09 05:15:00,71.5,71.2,30.05,SSW,205,0.0,0.0,99,0.00,,,0.00,LWC V2.00 B2112,2013-07-09 09:15:00,
2013-07-09 05:20:00,71.6,71.3,30.05,SSW,205,0.0,0.0,99,0.00,,,0.00,LWC V2.00 B2112,2013-07-09 09:20:00,
2013-07-09 05:25:00,71.6,71.3,30.05,SSW,205,0.0,0.0,99,0.00,,,0.00,LWC V2.00 B2112,2013-07-09 09:25:00,
2013-07-09 05:30:00,71.6,71.3,30.05,SSW,205,0.0,0.0,99,0.00,,,0.00,LWC V2.00 B2112,2013-07-09 09:30:00,
2013-07-09 05:35:00,71.6,71.3,30.05,SSW,205,0.0,0.0,99,0.00,,,0.00,LWC V2.00 B2112,2013-07-09 09:35:00,
2013-07-09 05:45:00,71.6,71.3,30.05,SSW,205,0.0,0.0,99,0.00,,,0.00,LWC V2.00 B2112,2013-07-09 09:45:00,
2013-07-09 05:50:00,71.8,71.5,30.05,SSW,205,0.0,0.0,99,0.00,,,0.00,LWC V2.00 B2112,2013-07-09 09:50:00,
2013-07-09 05:55:00,71.8,71.5,30.05,SSW,205,0.0,0.0,99,0.00,,,0.00,LWC V2.00 B2112,2013-07-09 09:55:00,
2013-07-09 06:00:00,72.0,71.7,30.05,SSW,205,0.0,0.0,99,0.00,,,0.00,LWC V2.00 B2112,2013-07-09 10:00:00,
2013-07-09 06:05:00,72.1,71.8,30.05,SSW,205,0.0,0.0,99,0.00,,,0.00,LWC V2.00 B2112,2013-07-09 10:05:00,
2013-07-09 06:10:00,72.1,71.8,30.05,SSW,205,0.0,0.0,99,0.00,,,0.00,LWC V2.00 B2112,2013-07-09 10:10:00,
2013-07-09 06:15:00,72.3,72.0,30.06,SSW,205,0.0,0.0,99,0.00,,,0.00,LWC V2.00 B2112,2013-07-09 10:15:00,
2013-07-09 06:20:00,72.3,72.0,30.06,SSW,205,0.0,0.0,99,0.00,,,0.00,LWC V2.00 B2112,2013-07-09 10:20:00,
2013-07-09 06:25:00,72.3,72.0,30.06,SSW,205,0.0,0.0,99,0.00,,,0.00,LWC V2.00 B2112,2013-07-09 10:25:00,
2013-07-09 06:30:00,72.3,72.0,30.06,SSW,205,0.0,0.0,99,0.00,,,0.00,LWC V2.00 B2112,2013-07-09 10:30:00,
2013-07-09 06:35:00,72.3,72.0,30.06,SSW,205,0.0,0.0,99,0.00,,,0.00,LWC V2.00 B2112,2013-07-09 10:35:00,
2013-07-09 06:40:00,72.5,72.2,30.06,SSW,205,0.0,0.0,99,0.00,,,0.00,LWC V2.00 B2112,2013-07-09 10:40:00,
2013-07-09 06:45:00,72.5,72.2,30.06,SSW,205,0.0,0.0,99,0.00,,,0.00,LWC V2.00 B2112,2013-07-09 10:45:00,
2013-07-09 06:50:00,72.7,72.4,30.06,SSW,205,0.0,0.0,99,0.00,,,0.00,LWC V2.00 B2112,2013-07-09 10:50:00,
2013-07-09 06:55:00,72.8,72.5,30.06,SSW,205,0.0,0.0,99,0.00,,,0.00,LWC V2.00 B2112,2013-07-09 10:55:00,
2013-07-09 07:00:00,72.8,72.8,30.06,SSW,205,0.0,0.0,100,0.00,,,0.00,LWC V2.00 B2112,2013-07-09 11:00:00,
2013-07-09 07:05:00,73.0,73.0,30.06,SSW,205,0.0,0.0,100,0.00,,,0.00,LWC V2.00 B2112,2013-07-09 11:05:00,
2013-07-09 07:10:00,73.2,72.9,30.06,SSW,205,0.0,0.0,99,0.00,,,0.00,LWC V2.00 B2112,2013-07-09 11:10:00,
2013-07-09 07:15:00,73.3,73.0,30.06,SSW,205,0.0,0.0,99,0.00,,,0.00,LWC V2.00 B2112,2013-07-09 11:15:00,
2013-07-09 07:20:00,73.3,73.3,30.06,West,259,0.0,0.0,100,0.00,,,0.00,LWC V2.00 B2112,2013-07-09 11:20:00,
2013-07-09 07:25:00,73.5,73.5,30.06,WNW,283,0.0,0.0,100,0.00,,,0.00,LWC V2.00 B2112,2013-07-09 11:25:00,
2013-07-09 07:30:00,73.5,73.5,30.06,NW,317,0.0,0.0,100,0.00,,,0.00,LWC V2.00 B2112,2013-07-09 11:30:00,
2013-07-09 07:35:00,73.7,73.7,30.06,SW,228,0.0,0.0,100,0.00,,,0.00,LWC V2.00 B2112,2013-07-09 11:35:00,
2013-07-09 07:40:00,73.7,73.4,30.06,West,277,0.0,0.0,99,0.00,,,0.00,LWC V2.00 B2112,2013-07-09 11:40:00,
2013-07-09 07:45:00,73.7,73.7,30.06,NNW,328,0.0,0.0,100,0.00,,,0.00,LWC V2.00 B2112,2013-07-09 11:45:00,
2013-07-09 07:50:00,73.7,73.7,30.06,SW,221,0.0,0.0,100,0.00,,,0.00,LWC V2.00 B2112,2013-07-09 11:50:00,
2013-07-09 07:55:00,73.9,73.6,30.06,SW,221,0.0,0.0,99,0.00,,,0.00,LWC V2.00 B2112,2013-07-09 11:55:00,
2013-07-09 08:00:00,73.9,73.6,30.06,SW,221,0.0,0.0,99,0.00,,,0.00,LWC V2.00 B2112,2013-07-09 12:00:00,
2013-07-09 08:05:00,74.0,74.0,30.06,SW,221,0.0,0.0,100,0.00,,,0.00,LWC V2.00 B2112,2013-07-09 12:05:00,
2013-07-09 08:10:00,74.0,74.0,30.06,SW,221,0.0,0.0,100,0.00,,,0.00,LWC V2.00 B2112,2013-07-09 12:10:00,
2013-07-09 08:15:00,74.2,74.2,30.06,SW,215,0.0,0.0,100,0.00,,,0.00,LWC V2.00 B2112,2013-07-09 12:15:00,
2013-07-09 08:20:00,74.2,74.2,30.06,SW,228,0.0,0.0,100,0.00,,,0.00,LWC V2.00 B2112,2013-07-09 12:20:00,
2013-07-09 08:25:00,74.4,74.4,30.06,NW,326,0.0,0.0,100,0.00,,,0.00,LWC V2.00 B2112,2013-07-09 12:25:00,
2013-07-09 08:30:00,74.4,74.1,30.06,SSE,148,0.0,0.0,99,0.00,,,0.00,LWC V2.00 B2112,2013-07-09 12:30:00,
2013-07-09 08:35:00,74.4,74.1,30.06,SSE,155,0.0,0.0,99,0.00,,,0.00,LWC V2.00 B2112,2013-07-09 12:35:00,
2013-07-09 08:40:00,74.4,74.1,30.06,SSE,153,0.0,0.0,99,0.00,,,0.00,LWC V2.00 B2112,2013-07-09 12:40:00,
2013-07-09 08:45:00,74.6,74.3,30.06,South,171,0.0,0.0,99,0.00,,,0.00,LWC V2.00 B2112,2013-07-09 12:45:00,
2013-07-09 08:50:00,74.6,74.3,30.06,SSE,148,0.0,0.0,99,0.00,,,0.00,LWC V2.00 B2112,2013-07-09 12:50:00,
2013-07-09 08:55:00,74.7,74.4,30.06,WSW,245,0.0,0.0,99,0.00,,,0.00,LWC V2.00 B2112,2013-07-09 12:55:00,
2013-07-09 09:00:00,74.9,74.6,30.06,WSW,252,0.0,0.0,99,0.00,,,0.00,LWC V2.00 B2112,2013-07-09 13:00:00,
2013-07-09 09:05:00,74.9,74.6,30.06,WSW,250,0.0,0.0,99,0.00,,,0.00,LWC V2.00 B2112,2013-07-09 13:05:00,
2013-07-09 09:10:00,75.1,74.8,30.06,WSW,250,0.0,0.0,99,0.00,,,0.00,LWC V2.00 B2112,2013-07-09 13:10:00,
2013-07-09 09:15:00,75.4,75.1,30.06,WSW,250,0.0,0.0,99,0.00,,,0.00,LWC V2.00 B2112,2013-07-09 13:15:00,
2013-07-09 09:20:00,75.6,75.3,30.06,SE,135,0.0,0.0,99,0.00,,,0.00,LWC V2.00 B2112,2013-07-09 13:20:00,
2013-07-09 09:25:00,75.4,74.8,30.06,SE,135,0.0,0.0,98,0.00,,,0.00,LWC V2.00 B2112,2013-07-09 13:25:00,
2013-07-09 09:30:00,75.8,75.2,30.07,WSW,238,0.0,0.0,98,0.00,,,0.00,LWC V2.00 B2112,2013-07-09 13:30:00,
2013-07-09 09:35:00,75.6,74.7,30.07,South,175,0.0,0.0,97,0.00,,,0.00,LWC V2.00 B2112,2013-07-09 13:35:00,
2013-07-09 09:40:00,75.8,74.9,30.07,South,175,0.0,0.0,97,0.00,,,0.00,LWC V2.00 B2112,2013-07-09 13:40:00,
2013-07-09 09:45:00,76.0,74.8,30.07,South,175,0.0,0.0,96,0.00,,,0.00,LWC V2.00 B2112,2013-07-09 13:45:00,
2013-07-09 09:50:00,76.3,75.1,30.07,SSW,192,0.0,0.0,96,0.00,,,0.00,LWC V2.00 B2112,2013-07-09 13:50:00,
2013-07-09 09:55:00,76.5,75.0,30.07,SE,139,0.0,0.0,95,0.00,,,0.00,LWC V2.00 B2112,2013-07-09 13:55:00,
2013-07-09 10:00:00,76.7,74.8,30.07,West,280,0.0,0.0,94,0.00,,,0.00,LWC V2.00 B2112,2013-07-09 14:00:00,
2013-07-09 10:05:00,76.7,74.5,30.07,SW,216,0.0,0.0,93,0.00,,,0.00,LWC V2.00 B2112,2013-07-09 14:05:00,
2013-07-09 10:10:00,76.8,74.3,30.07,West,271,0.0,3.0,92,0.00,,,0.00,LWC V2.00 B2112,2013-07-09 14:10:00,
2013-07-09 10:15:00,77.0,74.8,30.07,SSE,168,0.0,0.0,93,0.00,,,0.00,LWC V2.00 B2112,2013-07-09 14:15:00,
2013-07-09 10:20:00,77.2,75.0,30.07,SW,229,0.0,0.0,93,0.00,,,0.00,LWC V2.00 B2112,2013-07-09 14:20:00,
2013-07-09 10:25:00,77.7,75.2,30.07,WSW,251,0.0,0.0,92,0.00,,,0.00,LWC V2.00 B2112,2013-07-09 14:25:00,
2013-07-09 10:30:00,78.1,75.2,30.07,SSW,193,0.0,0.0,91,0.00,,,0.00,LWC V2.00 B2112,2013-07-09 14:30:00,
2013-07-09 10:35:00,78.3,75.1,30.07,SSW,208,0.0,0.0,90,0.00,,,0.00,LWC V2.00 B2112,2013-07-09 14:35:00,
2013-07-09 10:40:00,78.6,75.4,30.07,SE,137,0.0,0.0,90,0.00,,,0.00,LWC V2.00 B2112,2013-07-09 14:40:00,
2013-07-09 10:45:00,78.8,75.3,30.07,East,84,0.0,0.0,89,0.00,,,0.00,LWC V2.00 B2112,2013-07-09 14:45:00,
2013-07-09 10:50:00,79.0,75.1,30.07,SSW,212,0.0,0.0,88,0.00,,,0.00,LWC V2.00 B2112,2013-07-09 14:50:00,
2013-07-09 10:55:00,79.0,74.8,30.07,SW,215,0.0,0.0,87,0.00,,,0.00,LWC V2.00 B2112,2013-07-09 14:55:00,
2013-07-09 11:00:00,79.0,75.1,30.08,SW,216,0.0,0.0,88,0.00,,,0.00,LWC V2.00 B2112,2013-07-09 15:00:00,
2013-07-09 11:05:00,79.2,75.3,30.08,SSE,164,0.0,0.0,88,0.00,,,0.00,LWC V2.00 B2112,2013-07-09 15:05:00,
2013-07-09 11:10:00,79.4,75.5,30.08,SSE,164,0.0,0.0,88,0.00,,,0.00,LWC V2.00 B2112,2013-07-09 15:10:00,
2013-07-09 11:15:00,79.8,75.9,30.07,SE,132,0.0,0.0,88,0.00,,,0.00,LWC V2.00 B2112,2013-07-09 15:15:00,
2013-07-09 11:20:00,79.9,76.0,30.07,WSW,241,0.0,0.0,88,0.00,,,0.00,LWC V2.00 B2112,2013-07-09 15:20:00,
2013-07-09 11:25:00,79.9,75.3,30.07,SW,232,0.0,0.0,86,0.00,,,0.00,LWC V2.00 B2112,2013-07-09 15:25:00,
2013-07-09 11:30:00,79.9,75.7,30.08,SSE,159,0.0,0.0,87,0.00,,,0.00,LWC V2.00 B2112,2013-07-09 15:30:00,
2013-07-09 11:35:00,79.9,75.7,30.08,SW,234,0.0,0.0,87,0.00,,,0.00,LWC V2.00 B2112,2013-07-09 15:35:00,
2013-07-09 11:40:00,80.3,76.4,30.08,SW,236,0.0,0.0,88,0.00,,,0.00,LWC V2.00 B2112,2013-07-09 15:40:00,
2013-07-09 11:45:00,80.9,76.7,30.08,SW,226,0.0,0.0,87,0.00,,,0.00,LWC V2.00 B2112,2013-07-09 15:45:00,
2013-07-09 11:50:00,81.2,76.9,30.08,West,277,0.0,0.0,87,0.00,,,0.00,LWC V2.00 B2112,2013-07-09 15:50:00,
2013-07-09 11:55:00,81.8,75.7,30.08,South,175,0.0,0.0,82,0.00,,,0.00,LWC V2.00 B2112,2013-07-09 15:55:00,
2013-07-09 12:00:00,82.2,75.4,30.07,SSW,194,0.0,0.0,80,0.00,,,0.00,LWC V2.00 B2112,2013-07-09 16:00:00,
2013-07-09 12:05:00,82.4,75.6,30.07,South,179,0.0,0.0,80,0.00,,,0.00,LWC V2.00 B2112,2013-07-09 16:05:00,
2013-07-09 12:10:00,83.0,76.2,30.07,SSE,154,0.0,0.0,80,0.00,,,0.00,LWC V2.00 B2112,2013-07-09 16:10:00,
2013-07-09 12:15:00,83.2,76.0,30.07,SE,143,0.0,0.0,79,0.00,,,0.00,LWC V2.00 B2112,2013-07-09 16:15:00,
2013-07-09 12:20:00,83.0,76.2,30.07,South,171,0.0,0.0,80,0.00,,,0.00,LWC V2.00 B2112,2013-07-09 16:20:00,
2013-07-09 12:25:00,83.2,76.4,30.07,South,188,0.0,0.0,80,0.00,,,0.00,LWC V2.00 B2112,2013-07-09 16:25:00,
2013-07-09 12:30:00,83.4,76.2,30.07,WNW,286,0.0,1.0,79,0.00,,,0.00,LWC V2.00 B2112,2013-07-09 16:30:00,
2013-07-09 12:35:00,83.2,76.0,30.07,WNW,283,0.0,0.0,79,0.00,,,0.00,LWC V2.00 B2112,2013-07-09 16:35:00,
2013-07-09 12:40:00,83.0,76.2,30.07,WSW,255,0.0,0.0,80,0.00,,,0.00,LWC V2.00 B2112,2013-07-09 16:40:00,
2013-07-09 12:45:00,83.6,77.1,30.07,West,263,0.0,0.0,81,0.00,,,0.00,LWC V2.00 B2112,2013-07-09 16:45:00,
2013-07-09 12:50:00,84.0,76.8,30.07,SW,215,0.0,0.0,79,0.00,,,0.00,LWC V2.00 B2112,2013-07-09 16:50:00,
2013-07-09 12:55:00,84.0,76.8,30.07,SW,217,0.0,0.0,79,0.00,,,0.00,LWC V2.00 B2112,2013-07-09 16:55:00,
2013-07-09 13:00:00,84.5,78.7,30.05,West,269,0.0,0.0,83,0.00,,,0.00,LWC V2.00 B2112,2013-07-09 17:00:00,
2013-07-09 13:05:00,84.7,76.7,30.05,WSW,252,0.0,0.0,77,0.00,,,0.00,LWC V2.00 B2112,2013-07-09 17:05:00,
2013-07-09 13:10:00,84.7,76.3,30.05,SW,236,0.0,0.0,76,0.00,,,0.00,LWC V2.00 B2112,2013-07-09 17:10:00,
2013-07-09 13:15:00,84.9,77.6,30.05,WNW,298,0.0,0.0,79,0.00,,,0.00,LWC V2.00 B2112,2013-07-09 17:15:00,
2013-07-09 13:20:00,85.1,75.4,30.05,WNW,291,0.0,2.0,73,0.00,,,0.00,LWC V2.00 B2112,2013-07-09 17:20:00,
2013-07-09 13:25:00,84.9,76.1,30.05,West,259,0.0,0.0,75,0.00,,,0.00,LWC V2.00 B2112,2013-07-09 17:25:00,
2013-07-09 13:30:00,84.9,76.9,30.05,WNW,287,0.0,0.0,77,0.00,,,0.00,LWC V2.00 B2112,2013-07-09 17:30:00,
2013-07-09 13:35:00,85.1,76.3,30.05,SE,138,0.0,0.0,75,0.00,,,0.00,LWC V2.00 B2112,2013-07-09 17:35:00,
2013-07-09 13:40:00,85.7,76.8,30.05,SSW,210,0.0,0.0,75,0.00,,,0.00,LWC V2.00 B2112,2013-07-09 17:40:00,
2013-07-09 13:45:00,86.1,75.6,30.04,ESE,117,0.0,0.0,71,0.00,,,0.00,LWC V2.00 B2112,2013-07-09 17:45:00,
2013-07-09 13:50:00,86.1,76.0,30.04,South,184,0.0,0.0,72,0.00,,,0.00,LWC V2.00 B2112,2013-07-09 17:50:00,
2013-07-09 13:55:00,86.1,74.7,30.04,WNW,288,0.0,0.0,69,0.00,,,0.00,LWC V2.00 B2112,2013-07-09 17:55:00,
2013-07-09 14:00:00,85.9,76.6,30.04,SSW,206,0.0,0.0,74,0.00,,,0.00,LWC V2.00 B2112,2013-07-09 18:00:00,
2013-07-09 14:05:00,86.3,76.2,30.04,West,271,0.0,0.0,72,0.00,,,0.00,LWC V2.00 B2112,2013-07-09 18:05:00,
2013-07-09 14:10:00,86.5,76.4,30.04,West,270,0.0,0.0,72,0.00,,,0.00,LWC V2.00 B2112,2013-07-09 18:10:00,
2013-07-09 14:15:00,86.5,75.1,30.04,SW,226,0.0,0.0,69,0.00,,,0.00,LWC V2.00 B2112,2013-07-09 18:15:00,
2013-07-09 14:20:00,86.5,74.2,30.04,SW,229,0.0,1.0,67,0.00,,,0.00,LWC V2.00 B2112,2013-07-09 18:20:00,
2013-07-09 14:25:00,86.1,74.7,30.04,South,172,0.0,0.0,69,0.00,,,0.00,LWC V2.00 B2112,2013-07-09 18:25:00,
2013-07-09 14:30:00,86.1,75.6,30.02,WSW,252,0.0,0.0,71,0.00,,,0.00,LWC V2.00 B2112,2013-07-09 18:30:00,
2013-07-09 14:35:00,86.1,74.7,30.02,WNW,283,0.0,0.0,69,0.00,,,0.00,LWC V2.00 B2112,2013-07-09 18:35:00,
2013-07-09 14:40:00,86.1,72.9,30.02,South,183,0.0,0.0,65,0.00,,,0.00,LWC V2.00 B2112,2013-07-09 18:40:00,
2013-07-09 14:45:00,85.9,74.5,30.02,WNW,282,0.0,0.0,69,0.00,,,0.00,LWC V2.00 B2112,2013-07-09 18:45:00,
2013-07-09 14:50:00,86.3,75.8,30.02,SSE,157,0.0,0.0,71,0.00,,,0.00,LWC V2.00 B2112,2013-07-09 18:50:00,
2013-07-09 14:55:00,86.7,73.9,30.02,South,173,0.0,0.0,66,0.00,,,0.00,LWC V2.00 B2112,2013-07-09 18:55:00,
2013-07-09 15:00:00,86.3,74.9,30.02,WSW,252,0.0,0.0,69,0.00,,,0.00,LWC V2.00 B2112,2013-07-09 19:00:00,
2013-07-09 15:05:00,85.7,74.8,30.02,WSW,248,0.0,0.0,70,0.00,,,0.00,LWC V2.00 B2112,2013-07-09 19:05:00,
2013-07-09 15:10:00,86.1,76.8,30.02,WNW,283,0.0,0.0,74,0.00,,,0.00,LWC V2.00 B2112,2013-07-09 19:10:00,
2013-07-09 15:15:00,86.5,74.7,30.02,SSE,160,0.0,0.0,68,0.00,,,0.00,LWC V2.00 B2112,2013-07-09 19:15:00,
2013-07-09 15:20:00,87.0,74.2,30.02,South,173,0.0,0.0,66,0.00,,,0.00,LWC V2.00 B2112,2013-07-09 19:20:00,
2013-07-09 15:25:00,87.2,74.4,30.02,SSW,200,0.0,0.0,66,0.00,,,0.00,LWC V2.00 B2112,2013-07-09 19:25:00,
2013-07-09 15:35:00,86.7,73.9,30.02,SW,214,0.0,0.0,66,0.00,,,0.00,LWC V2.00 B2112,2013-07-09 19:35:00,
2013-07-09 15:40:00,86.7,74.8,30.02,SW,236,0.0,0.0,68,0.00,,,0.00,LWC V2.00 B2112,2013-07-09 19:40:00,
2013-07-09 15:50:00,86.7,74.4,30.01,SE,136,0.0,0.0,67,0.00,,,0.00,LWC V2.00 B2112,2013-07-09 19:50:00,
2013-07-09 15:55:00,87.0,75.6,30.01,WSW,240,0.0,0.0,69,0.00,,,0.00,LWC V2.00 B2112,2013-07-09 19:55:00,
2013-07-09 16:00:00,87.0,75.1,30.01,SW,236,0.0,0.0,68,0.00,,,0.00,LWC V2.00 B2112,2013-07-09 20:00:00,
2013-07-09 16:05:00,86.5,75.5,30.01,South,184,0.0,0.0,70,0.00,,,0.00,LWC V2.00 B2112,2013-07-09 20:05:00,
2013-07-09 16:10:00,86.7,75.7,30.01,East,101,0.0,0.0,70,0.00,,,0.00,LWC V2.00 B2112,2013-07-09 20:10:00,
2013-07-09 16:15:00,87.2,77.0,30.00,SW,233,0.0,0.0,72,0.00,,,0.00,LWC V2.00 B2112,2013-07-09 20:15:00,
2013-07-09 16:20:00,88.0,77.4,30.00,SSW,212,0.0,0.0,71,0.00,,,0.00,LWC V2.00 B2112,2013-07-09 20:20:00,
2013-07-09 16:25:00,88.4,75.1,30.00,SW,230,0.0,0.0,65,0.00,,,0.00,LWC V2.00 B2112,2013-07-09 20:25:00,
2013-07-09 16:30:00,88.6,75.3,30.00,SSE,148,0.0,7.0,65,0.00,,,0.00,LWC V2.00 B2112,2013-07-09 20:30:00,
2013-07-09 16:35:00,86.3,73.6,30.00,East,101,0.0,7.0,66,0.00,,,0.00,LWC V2.00 B2112,2013-07-09 20:35:00,
2013-07-09 16:40:00,83.8,69.8,30.00,South,184,0.0,7.0,63,0.00,,,0.00,LWC V2.00 B2112,2013-07-09 20:40:00,
2013-07-09 16:45:00,82.2,70.1,30.01,SE,124,0.0,0.0,67,0.00,,,0.00,LWC V2.00 B2112,2013-07-09 20:45:00,
2013-07-09 16:50:00,81.2,70.5,30.01,SW,230,0.0,0.0,70,0.00,,,0.00,LWC V2.00 B2112,2013-07-09 20:50:00,
2013-07-09 16:55:00,80.7,70.8,30.01,SW,221,0.0,0.0,72,0.00,,,0.00,LWC V2.00 B2112,2013-07-09 20:55:00,
2013-07-09 17:05:00,79.6,71.0,30.01,SSW,202,0.0,2.0,75,0.00,,,0.00,LWC V2.00 B2112,2013-07-09 21:05:00,
2013-07-09 17:10:00,77.7,70.7,30.01,West,279,0.0,0.0,79,0.00,,,0.00,LWC V2.00 B2112,2013-07-09 21:10:00,
2013-07-09 17:15:00,76.1,70.9,30.01,West,272,0.0,0.0,84,0.43,,,0.02,LWC V2.00 B2112,2013-07-09 21:15:00,
2013-07-09 17:20:00,75.3,71.2,30.01,WSW,255,0.0,0.0,87,0.40,,,0.06,LWC V2.00 B2112,2013-07-09 21:20:00,
2013-07-09 17:25:00,74.6,70.8,30.01,NW,314,0.0,0.0,88,0.37,,,0.08,LWC V2.00 B2112,2013-07-09 21:25:00,
2013-07-09 17:30:00,73.9,71.1,30.01,SW,233,0.0,0.0,91,0.22,,,0.10,LWC V2.00 B2112,2013-07-09 21:30:00,
2013-07-09 17:35:00,73.5,71.0,30.01,West,259,0.0,0.0,92,0.19,,,0.11,LWC V2.00 B2112,2013-07-09 21:35:00,
2013-07-09 17:40:00,73.5,71.3,30.01,West,259,0.0,0.0,93,0.14,,,0.12,LWC V2.00 B2112,2013-07-09 21:40:00,
2013-07-09 17:45:00,73.5,71.7,30.01,West,259,0.0,0.0,94,0.10,,,0.13,LWC V2.00 B2112,2013-07-09 21:45:00,
2013-07-09 17:50:00,73.3,71.5,30.01,West,259,0.0,0.0,94,0.16,,,0.14,LWC V2.00 B2112,2013-07-09 21:50:00,
2013-07-09 17:55:00,73.5,72.0,30.01,West,259,0.0,0.0,95,0.30,,,0.16,LWC V2.00 B2112,2013-07-09 21:55:00,
2013-07-09 18:00:00,73.5,72.3,30.01,West,259,0.0,0.0,96,0.18,,,0.18,LWC V2.00 B2112,2013-07-09 22:00:00,
2013-07-09 18:05:00,73.3,72.1,30.01,West,259,0.0,0.0,96,0.10,,,0.18,LWC V2.00 B2112,2013-07-09 22:05:00,
2013-07-09 18:10:00,73.5,72.3,30.01,West,259,0.0,0.0,96,0.09,,,0.19,LWC V2.00 B2112,2013-07-09 22:10:00,
2013-07-09 18:15:00,73.5,72.3,30.00,West,259,0.0,0.0,96,0.10,,,0.20,LWC V2.00 B2112,2013-07-09 22:15:00,
2013-07-09 18:20:00,73.5,72.6,30.00,West,261,0.0,0.0,97,0.08,,,0.20,LWC V2.00 B2112,2013-07-09 22:20:00,
2013-07-09 18:25:00,73.5,72.6,30.00,South,187,0.0,0.0,97,0.05,,,0.20,LWC V2.00 B2112,2013-07-09 22:25:00,
2013-07-09 18:30:00,73.7,72.8,30.00,South,187,0.0,0.0,97,0.00,,,0.20,LWC V2.00 B2112,2013-07-09 22:30:00,
2013-07-09 18:35:00,73.7,72.8,30.00,South,187,0.0,0.0,97,0.00,,,0.20,LWC V2.00 B2112,2013-07-09 22:35:00,
2013-07-09 18:40:00,73.9,73.0,30.00,South,187,0.0,0.0,97,0.00,,,0.20,LWC V2.00 B2112,2013-07-09 22:40:00,
2013-07-09 18:45:00,74.2,73.6,29.99,South,187,0.0,0.0,98,0.00,,,0.20,LWC V2.00 B2112,2013-07-09 22:45:00,
2013-07-09 18:50:00,74.4,73.8,29.99,SW,229,0.0,0.0,98,0.00,,,0.20,LWC V2.00 B2112,2013-07-09 22:50:00,
2013-07-09 18:55:00,74.6,74.0,29.99,SW,229,0.0,0.0,98,0.00,,,0.20,LWC V2.00 B2112,2013-07-09 22:55:00,
2013-07-09 19:00:00,75.1,74.5,29.99,SSW,210,0.0,0.0,98,0.00,,,0.20,LWC V2.00 B2112,2013-07-09 23:00:00,
2013-07-09 19:05:00,75.3,74.4,29.99,SE,139,0.0,0.0,97,0.00,,,0.20,LWC V2.00 B2112,2013-07-09 23:05:00,
2013-07-09 19:10:00,75.4,74.5,29.99,SE,130,0.0,0.0,97,0.00,,,0.20,LWC V2.00 B2112,2013-07-09 23:10:00,
2013-07-09 19:15:00,75.6,74.7,30.00,SE,130,0.0,0.0,97,0.00,,,0.20,LWC V2.00 B2112,2013-07-09 23:15:00,
2013-07-09 19:20:00,75.6,74.7,30.00,SE,131,0.0,0.0,97,0.00,,,0.20,LWC V2.00 B2112,2013-07-09 23:20:00,
2013-07-09 19:25:00,75.8,74.9,30.00,SE,131,0.0,0.0,97,0.00,,,0.20,LWC V2.00 B2112,2013-07-09 23:25:00,
2013-07-09 19:30:00,75.6,74.4,30.01,SW,230,0.0,0.0,96,0.00,,,0.20,LWC V2.00 B2112,2013-07-09 23:30:00,
2013-07-09 19:35:00,75.6,74.4,30.01,South,172,0.0,0.0,96,0.00,,,0.20,LWC V2.00 B2112,2013-07-09 23:35:00,
2013-07-09 19:40:00,75.4,74.2,30.01,SE,146,0.0,0.0,96,0.00,,,0.20,LWC V2.00 B2112,2013-07-09 23:40:00,
2013-07-09 19:45:00,75.3,74.1,30.01,South,179,0.0,0.0,96,0.00,,,0.20,LWC V2.00 B2112,2013-07-09 23:45:00,
2013-07-09 19:50:00,75.3,73.8,30.01,SSW,213,0.0,0.0,95,0.00,,,0.20,LWC V2.00 B2112,2013-07-09 23:50:00,
2013-07-09 19:55:00,75.3,73.8,30.01,WSW,243,0.0,0.0,95,0.00,,,0.20,LWC V2.00 B2112,2013-07-09 23:55:00,
2013-07-09 20:00:00,75.3,74.1,30.01,SE,137,0.0,0.0,96,0.00,,,0.20,LWC V2.00 B2112,2013-07-10 00:00:00,
2013-07-09 20:05:00,75.1,73.9,30.01,East,101,0.0,0.0,96,0.00,,,0.20,LWC V2.00 B2112,2013-07-10 00:05:00,
2013-07-09 20:10:00,75.1,73.9,30.01,SSW,201,0.0,0.0,96,0.00,,,0.20,LWC V2.00 B2112,2013-07-10 00:10:00,
2013-07-09 20:15:00,75.1,73.9,30.03,SSE,157,0.0,0.0,96,0.00,,,0.20,LWC V2.00 B2112,2013-07-10 00:15:00,
2013-07-09 20:20:00,75.1,73.9,30.03,SSE,157,0.0,0.0,96,0.00,,,0.20,LWC V2.00 B2112,2013-07-10 00:20:00,
2013-07-09 20:25:00,75.1,73.9,30.03,SSW,209,0.0,0.0,96,0.00,,,0.20,LWC V2.00 B2112,2013-07-10 00:25:00,
2013-07-09 20:30:00,74.9,73.7,30.02,SSW,203,0.0,0.0,96,0.00,,,0.20,LWC V2.00 B2112,2013-07-10 00:30:00,
2013-07-09 20:35:00,74.9,73.7,30.02,South,188,0.0,0.0,96,0.00,,,0.20,LWC V2.00 B2112,2013-07-10 00:35:00,
2013-07-09 20:40:00,74.9,73.7,30.02,SW,221,0.0,0.0,96,0.00,,,0.20,LWC V2.00 B2112,2013-07-10 00:40:00,
2013-07-09 20:45:00,74.9,73.7,30.01,South,176,0.0,0.0,96,0.00,,,0.20,LWC V2.00 B2112,2013-07-10 00:45:00,
2013-07-09 20:50:00,74.9,73.7,30.01,South,176,0.0,0.0,96,0.00,,,0.20,LWC V2.00 B2112,2013-07-10 00:50:00,
2013-07-09 20:55:00,74.9,73.7,30.01,South,176,0.0,0.0,96,0.00,,,0.20,LWC V2.00 B2112,2013-07-10 00:55:00,
2013-07-09 21:00:00,74.9,73.7,30.02,South,176,0.0,0.0,96,0.00,,,0.20,LWC V2.00 B2112,2013-07-10 01:00:00,
2013-07-09 21:05:00,74.7,73.5,30.02,South,176,0.0,0.0,96,0.00,,,0.20,LWC V2.00 B2112,2013-07-10 01:05:00,
2013-07-09 21:10:00,74.7,73.5,30.02,South,176,0.0,0.0,96,0.00,,,0.20,LWC V2.00 B2112,2013-07-10 01:10:00,
2013-07-09 21:15:00,74.7,73.5,30.02,South,176,0.0,0.0,96,0.00,,,0.20,LWC V2.00 B2112,2013-07-10 01:15:00,
2013-07-09 21:20:00,74.6,73.4,30.02,South,176,0.0,0.0,96,0.00,,,0.20,LWC V2.00 B2112,2013-07-10 01:20:00,
2013-07-09 21:25:00,74.6,73.4,30.02,South,176,0.0,0.0,96,0.00,,,0.20,LWC V2.00 B2112,2013-07-10 01:25:00,
2013-07-09 21:30:00,74.6,73.7,30.02,South,176,0.0,0.0,97,0.00,,,0.20,LWC V2.00 B2112,2013-07-10 01:30:00,
2013-07-09 21:35:00,74.4,73.5,30.02,South,176,0.0,0.0,97,0.00,,,0.20,LWC V2.00 B2112,2013-07-10 01:35:00,
2013-07-09 21:40:00,74.4,73.5,30.02,South,176,0.0,0.0,97,0.00,,,0.20,LWC V2.00 B2112,2013-07-10 01:40:00,
2013-07-09 21:45:00,74.2,73.3,30.02,South,176,0.0,0.0,97,0.00,,,0.20,LWC V2.00 B2112,2013-07-10 01:45:00,
2013-07-09 21:50:00,74.2,73.3,30.02,South,176,0.0,0.0,97,0.00,,,0.20,LWC V2.00 B2112,2013-07-10 01:50:00,
2013-07-09 21:55:00,74.0,73.1,30.02,South,176,0.0,0.0,97,0.00,,,0.20,LWC V2.00 B2112,2013-07-10 01:55:00,
2013-07-09 22:00:00,74.0,73.1,30.02,South,176,0.0,0.0,97,0.00,,,0.20,LWC V2.00 B2112,2013-07-10 02:00:00,
2013-07-09 22:05:00,74.0,73.1,30.02,South,176,0.0,0.0,97,0.00,,,0.20,LWC V2.00 B2112,2013-07-10 02:05:00,
2013-07-09 22:10:00,73.9,73.0,30.02,South,176,0.0,0.0,97,0.00,,,0.20,LWC V2.00 B2112,2013-07-10 02:10:00,
2013-07-09 22:15:00,73.9,73.0,30.02,South,176,0.0,0.0,97,0.00,,,0.20,LWC V2.00 B2112,2013-07-10 02:15:00,
2013-07-09 22:20:00,73.7,72.8,30.02,South,176,0.0,0.0,97,0.00,,,0.20,LWC V2.00 B2112,2013-07-10 02:20:00,
2013-07-09 22:25:00,73.7,72.8,30.02,South,176,0.0,0.0,97,0.00,,,0.20,LWC V2.00 B2112,2013-07-10 02:25:00,
2013-07-09 22:30:00,73.7,72.8,30.02,South,176,0.0,0.0,97,0.00,,,0.20,LWC V2.00 B2112,2013-07-10 02:30:00,
2013-07-09 22:40:00,73.5,72.6,30.02,South,176,0.0,0.0,97,0.00,,,0.20,LWC V2.00 B2112,2013-07-10 02:40:00,
2013-07-09 22:45:00,73.3,72.4,30.02,South,176,0.0,0.0,97,0.00,,,0.20,LWC V2.00 B2112,2013-07-10 02:45:00,
2013-07-09 22:50:00,73.3,72.4,30.02,South,176,0.0,0.0,97,0.00,,,0.20,LWC V2.00 B2112,2013-07-10 02:50:00,
2013-07-09 22:55:00,73.3,72.4,30.02,South,176,0.0,0.0,97,0.00,,,0.20,LWC V2.00 B2112,2013-07-10 02:55:00,
2013-07-09 23:00:00,73.3,72.4,30.02,South,178,0.0,0.0,97,0.00,,,0.20,LWC V2.00 B2112,2013-07-10 03:00:00,
2013-07-09 23:05:00,73.2,72.3,30.02,South,178,0.0,0.0,97,0.00,,,0.20,LWC V2.00 B2112,2013-07-10 03:05:00,
2013-07-09 23:10:00,73.2,72.3,30.02,SSE,162,0.0,0.0,97,0.00,,,0.20,LWC V2.00 B2112,2013-07-10 03:10:00,
2013-07-09 23:15:00,73.2,72.3,30.02,SSE,162,0.0,0.0,97,0.00,,,0.20,LWC V2.00 B2112,2013-07-10 03:15:00,
2013-07-09 23:20:00,73.2,72.3,30.02,SSE,162,0.0,0.0,97,0.00,,,0.20,LWC V2.00 B2112,2013-07-10 03:20:00,
2013-07-09 23:25:00,73.2,72.3,30.02,SSE,162,0.0,0.0,97,0.00,,,0.20,LWC V2.00 B2112,2013-07-10 03:25:00,
2013-07-09 23:30:00,73.2,72.3,30.02,SSE,162,0.0,0.0,97,0.00,,,0.20,LWC V2.00 B2112,2013-07-10 03:30:00,
2013-07-09 23:35:00,73.0,72.1,30.02,SSE,162,0.0,0.0,97,0.00,,,0.20,LWC V2.00 B2112,2013-07-10 03:35:00,
2013-07-09 23:40:00,73.0,72.1,30.02,SSE,162,0.0,0.0,97,0.00,,,0.20,LWC V2.00 B2112,2013-07-10 03:40:00,
2013-07-09 23:45:00,73.0,72.1,30.02,SSE,162,0.0,0.0,97,0.00,,,0.20,LWC V2.00 B2112,2013-07-10 03:45:00,
2013-07-09 23:50:00,73.0,72.1,30.02,SSE,162,0.0,0.0,97,0.00,,,0.20,LWC V2.00 B2112,2013-07-10 03:50:00,
2013-07-09 23:55:00,73.0,72.1,30.02,SSE,162,0.0,0.0,97,0.00,,,0.20,LWC V2.00 B2112,2013-07-10 03:55:00,